Starlink 32473

operational
NORAD ID: 62049 Int'l Des: 2024-216 Owner: SPXS Country: US Constellation: starlink
LEOCIRCULAR

About Starlink 32473

Description loading...

Live Position

Loading 3D Globe...

Upcoming Passes

Altitude History

Altitude vs Time

uPlot chart will show altitude changes over time

Two-Line Element Set

1 62049U 24216T 25259.42666930 .00036302 00000-0 13226-2 0 9995
2 62049 43.0029 160.5291 0001262 348.5778 11.5045 15.27570173 46068
Epoch: Sep 16, 2025 • Age: 23 hours

Current Status

Altitude 483.0 km
Velocity 7.63 km/s
Sub-Earth Point 19.33°N, 176.32°W
Launch Date Nov 21, 2024
Age 0.8 years
Type internet

Technical Details

Classification Payload
Mass 730.00 kg
Dry Mass 700.00 kg
Total Mass 730.00 kg
Length 0.30 m
Diameter 4.10 m
Span 29.00 m
Shape Box + pan
Manufacturer SPXS
Bus Type Starlink V2M
Phase Status In Orbit
Owner/State SPXS/US

Large Constellations

Loading constellations...